Location: Unspecified
(33.2407°S, 0.0000°E)
Time: 03:18:19
(UTC+00:00)

Envisat - Pass Details

Date: 27 May 2019
Orbit: 764 x 766 km, 98.1° (Epoch: 17 June)

Event Time Altitude Azimuth Distance (km) Brightness Sun altitude
Rises 05:15:48 0° 58° (ENE) 3,228 7.5 -19.8°
Reaches altitude 10° 05:19:01 10° 80° (E) 2,312 6.7 -19.1°
Maximum altitude 05:21:53 15° 114° (ESE) 1,974 5.8 -18.5°
Drops below altitude 10° 05:24:46 10° 149° (SSE) 2,328 5.7 -18.0°
Sets 05:28:01 0° 170° (S) 3,264 6.2 -17.3°
